Location: Ciserano
(45.5833°N, 9.6000°E)
Time: 15:59:34
(UTC+00:00)

FALCON 9 DEB - Pass Details

Date: 18 April 2021
Orbit: 369 x 385 km, 53.0° (Epoch: 10 May)

Event Time Altitude Azimuth Distance (km) Brightness Sun altitude
Exits shadow 03:55:05 - 296° (WNW) 2,206 6.3 -6.7°
Reaches altitude 10° 03:57:10 10° 286° (WNW) 1,385 5.2 -6.4°
Maximum altitude 03:59:58 31° 221° (SW) 682 3.7 -5.9°
Drops below altitude 10° 04:02:46 10° 156° (SSE) 1,386 5.7 -5.5°
Sets 04:04:55 0° 146° (SE) 2,237 6.9 -5.1°
